N5WAY-13 Weather Reports


Display with metric or nautical units.
time (UTC)temp
F
wind
direction
speed
MPH
gust
MPH
rain 1hr
in
rain 24hr
in
rain mn
in
humidity
%
barometer
mb
20260505140516 54 348 4.0 11.0 0.00 0.00 0.00 56 1013.6
20260505124518 58 335 1.0 4.0 0.00 0.00 0.00 37 1012.4
20260505123558 58 270 1.0 3.0 0.00 0.00 0.00 37 1012.5
20260505122518 58 259 1.0 4.0 0.00 0.00 0.00 37 1012.4
20260505121519 58 243 2.0 4.0 0.00 0.00 0.00 37 1012.4
20260505120515 58 243 1.0 4.0 0.00 0.00 0.00 36 1012.3
20260505115536 58 250 2.0 5.0 0.00 0.00 0.00 36 1012.2
20260505114516 58 243 2.0 5.0 0.00 0.00 0.00 36 1012.3
20260505113515 58 254 1.0 4.0 0.00 0.00 0.00 36 1012.1
20260505112515 58 299 1.0 3.0 0.00 0.00 0.00 36 1012.1
20260505111516 58 344 1.0 4.0 0.00 0.00 0.00 35 1012.0
20260505110516 58 341 1.0 3.0 0.00 0.00 0.00 35 1012.2
20260505101517 59 266 1.0 3.0 0.00 0.00 0.00 34 1012.3
20260505100518 59 249 1.0 3.0 0.00 0.00 0.00 33 1012.2
20260505095518 59 258 1.0 3.0 0.00 0.00 0.00 33 1012.2
20260505094517 59 256 1.0 3.0 0.00 0.00 0.00 34 1012.2
20260505093518 59 288 0.0 2.0 0.00 0.00 0.00 33 1012.2
20260505092518 59 204 0.0 2.0 0.00 0.00 0.00 32 1012.3
20260505091515 60 7 0.0 2.0 0.00 0.00 0.00 32 1012.2
20260505090515 60 299 1.0 3.0 0.00 0.00 0.00 32 1012.2
20260505085515 60 250 1.0 3.0 0.00 0.00 0.00 33 1012.4
20260505084516 61 354 1.0 2.0 0.00 0.00 0.00 32 1012.4
20260505083516 61 351 2.0 4.0 0.00 0.00 0.00 32 1012.6
20260505082516 61 330 2.0 7.0 0.00 0.00 0.00 32 1012.5
20260505081516 61 277 2.0 5.0 0.00 0.00 0.00 32 1012.7
20260505080516 61 251 2.0 6.0 0.00 0.00 0.00 31 1012.8
20260505075536 62 279 2.0 5.0 0.00 0.00 0.00 31 1013.0
20260505074517 62 265 1.0 4.0 0.00 0.00 0.00 31 1012.8
20260505073516 62 277 2.0 6.0 0.00 0.00 0.00 30 1012.8
20260505072517 63 261 2.0 5.0 0.00 0.00 0.00 30 1012.7
20260505071537 63 264 2.0 8.0 0.00 0.00 0.00 29 1012.8
20260505070537 64 263 2.0 7.0 0.00 0.00 0.00 28 1012.6
20260505065517 64 242 4.0 10.0 0.00 0.00 0.00 27 1012.4
20260505064517 64 244 3.0 8.0 0.00 0.00 0.00 27 1012.3
20260505063517 64 246 3.0 7.0 0.00 0.00 0.00 27 1012.2
20260505062518 65 249 3.0 7.0 0.00 0.00 0.00 26 1012.1
20260505061517 65 245 3.0 8.0 0.00 0.00 0.00 26 1012.1
20260505060518 65 255 3.0 8.0 0.00 0.00 0.00 25 1012.1
20260505055518 65 252 3.0 7.0 0.00 0.00 0.00 25 1012.0
20260505054518 66 252 3.0 9.0 0.00 0.00 0.00 24 1012.0
20260505053515 66 268 2.0 6.0 0.00 0.00 0.00 24 1012.1
20260505052515 66 268 2.0 8.0 0.00 0.00 0.00 24 1012.0
20260505051515 66 285 1.0 5.0 0.00 0.00 0.00 24 1011.9
20260505050515 66 267 1.0 3.0 0.00 0.00 0.00 24 1011.9
20260505041517 68 261 2.0 4.0 0.00 0.00 0.00 24 1011.7
20260505040536 68 262 2.0 5.0 0.00 0.00 0.00 24 1011.7
20260505035517 68 271 1.0 3.0 0.00 0.00 0.00 24 1011.6
20260505034516 68 275 1.0 4.0 0.00 0.00 0.00 24 1011.6
20260505033517 68 272 2.0 4.0 0.00 0.00 0.00 24 1011.4
20260505032517 69 264 2.0 3.0 0.00 0.00 0.00 23 1011.3
20260505031517 69 252 2.0 6.0 0.00 0.00 0.00 23 1011.2
20260505030557 69 283 2.0 6.0 0.00 0.00 0.00 23 1011.1
20260505025517 70 275 2.0 5.0 0.00 0.00 0.00 22 1011.0
20260505024517 70 282 2.0 5.0 0.00 0.00 0.00 22 1010.9
20260505023517 70 266 2.0 8.0 0.00 0.00 0.00 22 1010.8
20260505022518 71 272 2.0 7.0 0.00 0.00 0.00 21 1010.8
20260505021515 71 277 2.0 6.0 0.00 0.00 0.00 20 1010.7
20260505020538 71 269 2.0 6.0 0.00 0.00 0.00 20 1010.5
20260505015515 72 266 2.0 6.0 0.00 0.00 0.00 21 1010.3
20260505014516 72 302 2.0 5.0 0.00 0.00 0.00 20 1010.3
20260505013516 72 277 2.0 6.0 0.00 0.00 0.00 20 1010.2
20260505012516 73 276 2.0 8.0 0.00 0.00 0.00 20 1010.0
20260505011516 73 258 3.0 11.0 0.00 0.00 0.00 19 1009.9
20260505010556 73 284 2.0 5.0 0.00 0.00 0.00 19 1010.0
20260505005516 74 270 3.0 7.0 0.00 0.00 0.00 19 1010.0
20260505004516 74 249 4.0 10.0 0.00 0.00 0.00 18 1010.0
20260505003516 74 246 4.0 11.0 0.00 0.00 0.00 18 1010.0
20260505002517 74 254 3.0 9.0 0.00 0.00 0.00 17 1010.0
20260505001516 75 253 2.0 7.0 0.00 0.00 0.00 16 1010.1
20260505000517 75 252 3.0 8.0 0.00 0.00 0.00 16 1010.1
20260504235517 75 251 4.0 9.0 0.00 0.00 0.00 16 1010.0
20260504234517 75 246 4.0 12.0 0.00 0.00 0.00 16 1010.1
20260504233517 75 265 3.0 7.0 0.00 0.00 0.00 15 1010.2
20260504232517 75 257 3.0 11.0 0.00 0.00 0.00 14 1010.2
20260504231518 75 262 3.0 8.0 0.00 0.00 0.00 14 1010.1
20260504230518 75 255 4.0 10.0 0.00 0.00 0.00 14 1010.2
20260504225517 75 250 4.0 10.0 0.00 0.00 0.00 14 1010.3
20260504224518 75 247 4.0 9.0 0.00 0.00 0.00 14 1010.3
20260504223515 75 250 5.0 12.0 0.00 0.00 0.00 14 1010.4
20260504222515 76 240 4.0 12.0 0.00 0.00 0.00 14 1010.5
20260504221515 76 250 4.0 8.0 0.00 0.00 0.00 14 1010.6
20260504220515 75 238 4.0 11.0 0.00 0.00 0.00 15 1010.7
20260504215515 76 245 5.0 13.0 0.00 0.00 0.00 14 1010.9
20260504214535 76 236 6.0 15.0 0.00 0.00 0.00 15 1010.9
20260504213536 76 242 4.0 7.0 0.00 0.00 0.00 15 1011.1
20260504212516 77 236 5.0 11.0 0.00 0.00 0.00 15 1011.2
20260504211516 77 240 4.0 9.0 0.00 0.00 0.00 15 1011.3
20260504210536 77 235 4.0 9.0 0.00 0.00 0.00 15 1011.5
20260504205517 76 307 3.0 10.0 0.00 0.00 0.00 17 1011.8
20260504204517 76 279 2.0 8.0 0.00 0.00 0.00 17 1012.1
20260504203516 75 334 3.0 8.0 0.00 0.00 0.00 18 1012.3
20260504202537 75 198 2.0 6.0 0.00 0.00 0.00 18 1012.6
20260504201517 74 262 2.0 9.0 0.00 0.00 0.00 19 1012.9
20260504200517 74 243 4.0 13.0 0.00 0.00 0.00 18 1013.0
20260504195517 74 249 4.0 11.0 0.00 0.00 0.00 19 1013.1
20260504194518 73 231 4.0 10.0 0.00 0.00 0.00 19 1013.2
20260504193517 72 224 3.0 8.0 0.00 0.00 0.00 19 1013.4
20260504192538 72 249 3.0 8.0 0.00 0.00 0.00 19 1013.5
20260504191518 72 277 2.0 7.0 0.00 0.00 0.00 19 1013.6
20260504190518 71 201 5.0 10.0 0.00 0.00 0.00 22 1013.7
20260504185538 71 203 5.0 11.0 0.00 0.00 0.00 21 1013.9
20260504184515 71 244 3.0 8.0 0.00 0.00 0.00 22 1014.3
20260504183515 71 245 3.0 8.0 0.00 0.00 0.00 22 1014.3
20260504182515 70 215 4.0 10.0 0.00 0.00 0.00 22 1014.4
20260504181516 69 201 5.0 10.0 0.00 0.00 0.00 23 1014.5
20260504180516 70 223 5.0 9.0 0.00 0.00 0.00 22 1014.6
20260504175536 70 223 5.0 12.0 0.00 0.00 0.00 21 1014.6
20260504174516 70 241 3.0 10.0 0.00 0.00 0.00 21 1014.7
20260504173516 69 235 3.0 7.0 0.00 0.00 0.00 22 1014.9
20260504172516 69 239 3.0 8.0 0.00 0.00 0.00 23 1015.0
20260504171516 69 240 2.0 7.0 0.00 0.00 0.00 23 1015.1
20260504170517 69 242 3.0 7.0 0.00 0.00 0.00 23 1015.0
20260504150535 60 200 3.0 5.0 0.00 0.00 0.00 53 1015.8